Simultaneous Nadir Overpasses (SNOs) Predictions

Prediction of SNOs between AURA and NPP Satellite Orbit:

Table of predicted SNOs for the next 14.0 days since TLE Epoch: 11/30/2015
Index Date (AURA) Time (AURA) Lat,Lon (AURA) SZA (AURA ) Date (NPP) Time (NPP) Lat,Lon (NPP) SZA (NPP ) Distance(km) Time Diff (sec)
1 11/30/2015 09:46:13 -79.07, 107.46 66.31 11/30/2015 09:45:53 -79.06, 107.34 66.27 2.48 20
2 11/30/2015 10:35:30 79.42, -82.67 113.25 11/30/2015 10:36:27 79.41, -82.73 113.22 1.26 57
3 12/03/2015 01:13:16 78.99, 55.27 114.23 12/03/2015 01:12:03 79.00, 55.37 114.27 2.37 73
4 12/03/2015 02:02:37 -79.24,-135.57 66.08 12/03/2015 02:02:42 -79.24,-135.60 66.08 0.57 5
5 12/05/2015 17:29:42 79.03, 171.38 114.59 12/05/2015 17:28:55 79.03, 171.38 114.63 0.14 47
6 12/05/2015 18:19:02 -79.32, -19.18 65.78 12/05/2015 18:19:33 -79.31, -19.32 65.78 3.03 31
7 12/08/2015 09:46:06 79.17, -71.87 114.77 12/08/2015 09:45:45 79.17, -71.88 114.79 0.32 21
8 12/08/2015 10:35:24 -79.53, 98.14 65.71 12/08/2015 10:36:20 -79.54, 98.28 65.78 2.83 56
9 12/11/2015 01:13:14 -78.91,-125.19 64.60 12/11/2015 01:12:02 -78.91,-125.23 64.53 0.79 72
10 12/11/2015 02:02:29 79.34, 45.06 114.86 12/11/2015 02:02:34 79.34, 45.13 114.85 1.40 5
11 12/13/2015 17:29:35 -79.14, -7.92 64.64 12/13/2015 17:28:49 -79.15, -7.81 64.62 2.44 46




NCC Satellite Simultaneous Nadir Overpasses (SNOs) Prediction Service
